EET,Max TemperatureF,Mean TemperatureF,Min TemperatureF,Max Dew PointF,MeanDew PointF,Min DewpointF,Max Humidity, Mean Humidity, Min Humidity, Max Sea Level PressureIn, Mean Sea Level PressureIn, Min Sea Level PressureIn, Max VisibilityMiles, Mean VisibilityMiles, Min VisibilityMiles, Max Wind SpeedMPH, Mean Wind SpeedMPH, Max Gust SpeedMPH,PrecipitationIn, CloudCover, Events, WindDirDegrees
2012-11-1,72,63,54,59,54,50,100,69,42,30.04,29.95,29.83,6,6,4,7,5,,0.00,6,Rain,84
2012-11-2,76,69,62,63,58,54,94,69,37,29.89,29.84,29.80,12,6,2,18,6,18,0.20,6,Rain-Thunderstorm,173
2012-11-3,70,67,62,66,61,54,100,81,64,30.09,30.01,29.89,6,6,5,9,7,,0.00,5,,260
2012-11-4,67,62,58,63,58,52,100,82,64,30.09,30.05,30.01,6,6,4,8,5,,0.00,5,,255
2012-11-5,70,66,61,63,59,55,100,77,48,30.02,29.95,29.86,6,5,4,18,7,,0.00,2,,221
2012-11-6,72,67,62,61,58,55,94,69,55,29.98,29.89,29.80,6,6,2,28,16,34,0.12,5,Rain,227
2012-11-7,61,57,53,59,53,46,100,80,58,30.09,30.03,29.95,6,5,4,16,10,,0.04,6,Rain,22
2012-11-8,61,58,54,55,44,39,100,61,33,30.14,30.11,30.09,6,6,4,25,15,38,0.00,5,Rain,16
2012-11-9,63,58,54,46,44,39,72,59,40,30.09,30.01,29.95,12,6,6,17,10,,0.00,3,,3
2012-11-10,59,56,53,50,46,41,82,67,50,30.18,30.07,29.98,6,6,3,24,12,,0.03,6,Rain,358
2012-11-11,64,58,51,50,46,43,82,65,43,30.33,30.25,30.18,6,6,6,17,10,,0.00,4,Rain,9
2012-11-12,65,56,47,48,46,45,88,65,39,30.34,30.30,30.27,6,6,6,12,6,,0.00,3,,47
2012-11-13,65,58,50,48,46,45,82,63,42,30.27,30.22,30.18,6,6,6,14,7,,0.03,5,,37
2012-11-14,62,58,55,46,44,41,67,57,41,30.27,30.24,30.21,6,6,6,16,10,25,0.00,5,,32
2012-11-15,66,60,53,50,47,45,82,64,43,30.25,30.21,30.18,6,6,6,14,6,,0.00,3,,45
2012-11-16,62,58,54,50,48,46,77,68,46,30.25,30.23,30.21,6,6,6,15,9,25,0.00,3,,50
2012-11-17,60,58,55,50,47,44,77,66,50,30.22,30.16,30.12,6,6,6,16,12,,0.00,5,,40
2012-11-18,64,60,57,54,51,48,88,72,52,30.14,30.10,30.06,6,6,4,15,10,,0.00,5,Rain,35
2012-11-19,63,57,51,55,52,48,100,80,57,30.15,30.12,30.09,6,6,4,12,6,,0.00,3,,67
2012-11-20,67,62,56,55,51,48,94,73,46,30.16,30.13,30.09,12,6,5,16,10,,0.00,3,,55
2012-11-21,65,60,56,55,51,46,88,74,45,30.18,30.14,30.09,6,6,4,15,8,,0.02,3,Rain,57
2012-11-22,57,55,53,54,49,45,100,78,62,30.21,30.18,30.15,12,6,4,18,12,,0.12,6,Rain,14
2012-11-23,57,54,51,47,45,43,82,72,56,30.25,30.22,30.21,12,6,6,20,12,,0.00,5,,6
2012-11-24,57,52,48,52,46,41,100,80,46,30.26,30.21,30.18,6,6,3,21,13,,0.04,6,Rain,5
2012-11-25,55,52,48,43,40,39,71,65,51,30.27,30.23,30.21,6,6,6,12,9,,0.00,6,,11
2012-11-26,57,51,45,43,41,39,87,66,51,30.24,30.19,30.15,6,6,4,12,8,,0.00,4,,11
2012-11-27,55,48,42,48,45,41,100,78,56,30.15,30.11,30.06,6,4,2,8,5,,0.00,2,,248
2012-11-28,61,56,52,52,48,44,82,68,53,30.09,30.03,29.98,6,6,6,16,12,,0.00,4,,199
2012-11-29,68,62,56,52,49,46,77,60,40,29.98,29.88,29.80,6,6,6,17,9,,0.00,5,,204
2012-11-30,65,62,59,59,54,48,100,73,47,29.92,29.85,29.77,6,6,4,17,11,23,0.16,6,Rain,207